Dewpoint
60 59 59 59 60 60 59 59 59 59 59 58 58 58 58 59 60 60 59 58 58 58 58 57 58 58 58 57 57 57 56 56 56 56 55 55 54 54 53 53 53 52
59 60 60 59 59 59 59 59 59 58 58 58 57 58 59 58 59 59 58 58 58 57 57 57 57 57 56 56 56 56 55 55 55 57 54 54 53 53 52 52 51 51
59 59 59 58 58 59 59 59 58 58 58 58 58 58 59 59 57 57 57 57 57 57 56 55 56 57 56 56 55 55 55 55 54 54 55 53 53 51 51 51 50 50
59 59 58 58 58 58 59 58 58 58 58 57 57 58 58 58 56 56 57 60 57 55 55 55 55 55 55 55 54 54 54 54 54 54 53 52 52 51 50 50 49 49
59 59 59 58 58 58 58 57 57 57 57 57 56 56 56 56 56 56 57 58 55 54 54 53 54 54 54 54 54 53 54 53 54 53 51 51 51 51 50 49 48 48
59 58 58 58 58 57 57 57 57 57 56 56 55 56 56 57 57 55 54 54 55 54 53 54 53 54 54 54 53 53 53 53 52 51 51 50 50 50 50 49 48 47
58 57 57 57 57 57 57 57 57 56 56 56 56 56 56 56 53 53 52 53 53 53 53 53 52 52 53 53 53 53 53 52 51 50 50 50 50 49 49 48 48 47
56 56 56 56 56 56 56 56 56 56 55 55 55 55 53 52 52 52 52 52 51 51 52 52 52 52 51 51 51 52 52 52 51 50 49 49 49 48 48 49 48 47
56 56 57 57 57 56 56 55 55 55 55 54 54 54 54 53 52 52 52 50 50 50 49 49 49 49 50 51 50 50 50 50 51 50 49 49 48 48 48 48 48 47
56 56 56 56 55 56 55 55 55 54 55 54 55 52 52 52 51 50 50 49 48 47 46 46 46 47 47 49 49 49 50 49 49 50 50 49 48 48 47 48 48 47
56 56 55 55 55 55 55 56 56 55 54 52 52 51 51 50 50 49 48 48 47 46 45 44 44 45 46 47 48 47 48 48 46 45 45 47 48 48 49 46 47 47
55 55 55 55 55 55 55 55 55 55 53 53 51 50 50 49 48 48 48 46 45 44 44 43 43 43 44 46 47 46 46 47 47 45 43 42 43 47 46 46 46 46
55 55 55 55 54 54 54 54 53 53 52 51 51 49 48 48 47 47 47 46 45 44 43 42 42 42 43 44 46 46 45 45 45 45 44 43 42 43 46 46 45 45
55 55 54 54 53 53 53 52 53 52 51 50 50 49 48 47 46 46 46 45 44 44 43 43 41 41 41 43 45 45 44 44 45 44 43 42 42 41 42 45 46 44
54 54 54 53 53 52 52 52 52 50 51 50 49 48 48 46 45 45 44 44 43 43 42 41 41 41 41 42 44 44 42 43 44 44 44 43 42 41 41 40 41 45
53 53 53 53 52 52 51 50 50 50 48 47 47 46 46 45 45 45 44 43 43 42 41 41 40 41 42 42 45 44 41 41 42 42 42 42 42 41 41 40 40 40
53 53 52 52 52 52 51 51 50 49 49 48 47 45 45 45 45 44 44 44 43 41 40 40 39 40 39 39 40 42 40 39 39 39 39 39 40 40 40 40 39 39
52 52 52 51 51 51 50 50 49 48 48 47 47 46 45 44 44 44 43 43 41 40 39 39 38 40 38 38 39 39 40 39 37 37 38 37 38 38 38 39 38 38
51 51 51 51 50 50 49 49 48 47 46 46 46 45 43 43 42 42 42 42 40 38 38 38 37 39 38 38 39 38 37 38 35 36 36 36 36 37 37 37 37 37
51 50 50 50 50 49 49 48 48 47 47 46 45 44 43 43 42 42 42 41 40 38 37 37 37 39 37 38 39 38 37 37 35 35 35 35 35 36 36 36 36 36
50 50 49 49 49 48 48 47 46 46 45 45 44 43 42 41 41 41 41 41 40 39 37 37 37 37 37 37 38 39 38 38 37 36 35 34 35 35 35 35 35 36
50 49 48 48 48 47 47 46 46 45 45 45 44 43 42 42 41 41 40 40 40 38 36 36 36 36 36 37 38 40 40 42 38 36 35 34 34 35 36 36 36 35
49 48 48 48 47 47 46 46 45 45 44 43 42 42 41 40 40 40 40 39 39 37 36 35 36 36 36 37 37 39 40 40 40 38 36 35 33 34 35 37 38 37
48 48 47 47 46 46 46 45 44 44 44 44 42 41 38 37 37 37 38 39 38 37 36 35 35 37 36 37 38 40 42 39 38 39 38 37 36 35 35 34 37 41
48 47 47 46 46 45 45 44 44 44 44 42 40 39 38 39 40 40 40 40 38 38 39 36 35 37 36 36 38 39 40 39 38 36 35 34 34 33 34 34 34 37
48 47 46 45 45 44 44 44 43 41 40 40 39 38 39 40 41 39 38 37 37 37 39 36 34 34 36 36 37 38 39 40 38 35 35 35 35 34 33 33 34 34